Location: Unspecified
(0.0000°N, 0.0000°E)
Time: 08:23:36
(UTC+00:00)

USA 259 - Visible Passes

Search period start: 17 October 2019 00:00
Search period end: 27 October 2019 00:00
Orbit: 1083 x 39271 km, 63.4° (Epoch: 01 September)

Date Brightness Start Highest point End Pass type
(mag) Time Alt. Az. Time Alt. Az. Time Alt. Az.
17 Oct ? 22:42:12 10° SW 23:28:04 53° NNW 10:11:02 10° SSE visible
18 Oct ? 22:37:47 10° SW 23:23:07 53° NNW 10:06:37 10° SSE visible
19 Oct ? 22:33:23 10° SW 23:17:57 53° NNW 10:02:13 10° SSE visible
20 Oct ? 22:28:58 10° SW 23:12:28 54° NNW 09:57:48 10° SSE visible
21 Oct ? 22:24:34 10° SW 23:06:35 55° NNW 09:53:23 10° SSE visible
22 Oct ? 22:20:08 10° SW 22:40:00 68° WNW 09:48:58 10° SSE visible
23 Oct ? 22:15:43 10° SW 22:35:35 68° WNW 09:44:34 10° SSE visible
24 Oct ? 22:11:18 10° SW 22:31:10 68° WNW 09:40:08 10° SSE visible
25 Oct ? 22:06:54 10° SW 22:26:46 68° WNW 09:35:43 10° SSE visible
